Location: Banios
(43.0451°N, 0.2335°E)
Time: 12:46:15
(UTC+00:00)

deb Explorer IX - Visible Passes

Search period start: 13 May 2021 00:00
Search period end: 23 May 2021 00:00
Orbit: 541 x 1098 km, 38.8° (Epoch: 12 May)

Date Brightness Start Highest point End Pass type
(mag) Time Alt. Az. Time Alt. Az. Time Alt. Az.
13 May ? 20:24:05 10° SSW 20:29:50 29° SSE 20:34:20 13° E visible
13 May ? 22:10:10 10° WSW 22:15:40 48° SSW 22:15:40 48° SSW visible
14 May ? 20:00:05 10° SSW 20:05:59 29° SSE 20:11:21 10° E visible
14 May ? 21:46:10 10° WSW 21:52:40 53° S 21:53:59 45° SE visible
14 May ? 23:33:24 10° W 23:35:16 20° WSW 23:35:16 20° WSW visible
15 May ? 19:36:06 10° SSW 19:42:07 30° SSE 19:47:38 10° E visible
15 May ? 21:22:10 10° WSW 21:28:49 54° S 21:31:56 28° ESE visible
15 May ? 23:09:25 10° W 23:13:12 34° WSW 23:13:12 34° WSW visible
16 May ? 20:58:11 10° WSW 21:04:58 54° S 21:09:37 17° E visible
16 May ? 22:45:26 10° W 22:50:52 51° SW 22:50:52 51° SW visible
17 May ? 20:34:11 10° WSW 20:41:04 55° S 20:47:07 11° E visible
17 May ? 22:21:26 10° W 22:28:01 57° S 22:28:22 56° S visible
18 May ? 00:09:06 10° W 00:09:37 12° W 00:09:37 12° W visible
18 May ? 20:10:12 10° WSW 20:17:11 56° S 20:23:30 10° E visible
18 May ? 21:57:26 10° W 22:04:09 58° S 22:05:44 45° SE visible
18 May ? 23:45:07 10° W 23:46:58 18° WSW 23:46:58 18° WSW visible
19 May ? 19:46:14 10° WSW 19:53:17 56° S 19:59:45 10° E visible
19 May ? 21:33:26 10° W 21:40:18 59° S 21:43:02 33° SE visible
19 May ? 23:21:06 10° W 23:24:16 24° WSW 23:24:16 24° WSW visible
20 May ? 21:09:26 10° W 21:16:24 59° S 21:20:16 24° ESE visible
20 May ? 22:57:06 10° W 23:01:30 30° SW 23:01:30 30° SW visible
21 May ? 20:45:27 10° W 20:52:31 60° S 20:57:29 18° ESE visible
21 May ? 22:33:05 10° W 22:38:43 35° SW 22:38:43 35° SW visible
22 May ? 20:21:28 10° W 20:28:36 60° S 20:34:41 12° ESE visible
22 May ? 22:09:04 10° W 22:15:19 36° SSW 22:15:54 35° SSW visible
